Starlink 32658

operational
NORAD ID: 62999 Int'l Des: 2025-031 Owner: SPXS Country: US Constellation: starlink
LEOCIRCULAR

About Starlink 32658

Description loading...

Live Position

Loading 3D Globe...

Upcoming Passes

Altitude History

Altitude vs Time

uPlot chart will show altitude changes over time

Two-Line Element Set

1 62999U 25031U 26035.19073112 .00042132 00000-0 15312-2 0 9992
2 62999 43.0022 332.3767 0001448 275.4592 84.6095 15.27592915 55974
Epoch: Feb 4, 2026 • Age: 16 hours

Current Status

Altitude 486.1 km
Velocity 7.63 km/s
Sub-Earth Point 39.59°N, 53.07°W
Launch Date Feb 11, 2025
Age 0.9 years
Type internet

Technical Details

Classification Payload
Mass 730.00 kg
Dry Mass 700.00 kg
Total Mass 730.00 kg
Length 0.30 m
Diameter 4.10 m
Span 29.00 m
Shape Box + pan
Manufacturer SPXS
Bus Type Starlink V2M
Phase Status In Orbit
Owner/State SPXS/US

Large Constellations

Loading constellations...